• In Netherlands
  • List of Countries
  • For 7 days
  • Water Temperature
  • Satellite Maps
  • Weather Map
  • Weather Widgets
  • user-avatar
    Login

    Hourly Weather Kitzbuhel

    Today, 26 May, Friday

    Time Temperature Precipitation Wind Pressure Humidity
    00:00 +8°C° 0 mm 1 mps 679 mmHg 96%
    01:00 +7°C° 0 mm 1 mps 679 mmHg 96%
    02:00 +7°C° 0 mm 1 mps 678 mmHg 96%
    03:00 +6°C° 0 mm 1 mps 678 mmHg 96%
    04:00 +6°C° 0 mm 1 mps 678 mmHg 96%
    05:00 +8°C° 0 mm 1 mps 678 mmHg 90%
    06:00 +10°C° 0 mm 1 mps 679 mmHg 84%
    07:00 +12°C° 0 mm 1 mps 679 mmHg 78%
    08:00 +14°C° 0 mm 1 mps 680 mmHg 72%
    09:00 +15°C° 0 mm 1 mps 680 mmHg 66%
    10:00 +17°C° 0 mm 2 mps 680 mmHg 60%
    11:00 +18°C° 0 mm 2 mps 680 mmHg 59%
    12:00 +18°C° 0 mm 2 mps 680 mmHg 58%
    13:00 +19°C° 0 mm 2 mps 680 mmHg 57%
    14:00 +19°C° 0 mm 2 mps 680 mmHg 59%
    15:00 +19°C° 0 mm 2 mps 680 mmHg 61%
    16:00 +19°C° 0 mm 2 mps 680 mmHg 63%
    17:00 +18°C° 0 mm 2 mps 679 mmHg 71%
    18:00 +16°C° 0 mm 2 mps 679 mmHg 79%
    19:00 +15°C° 0 mm 1 mps 679 mmHg 87%
    20:00 +13°C° 0 mm 1 mps 679 mmHg 90%
    21:00 +11°C° 0 mm 1 mps 679 mmHg 93%
    22:00 +9°C° 0 mm 1 mps 679 mmHg 96%
    23:00 +9°C° 0 mm 1 mps 679 mmHg 95%

    Tomorrow, 27 May, Saturday

    Time Temperature Precipitation Wind Pressure Humidity
    00:00 +8°C° 0 mm 1 mps 679 mmHg 93%
    01:00 +8°C° 0 mm 1 mps 679 mmHg 92%
    02:00 +7°C° 0 mm 1 mps 678 mmHg 91%
    03:00 +7°C° 0 mm 1 mps 678 mmHg 89%
    04:00 +7°C° 0 mm 1 mps 678 mmHg 88%
    05:00 +9°C° 0 mm 1 mps 679 mmHg 81%
    06:00 +12°C° 0 mm 1 mps 680 mmHg 75%
    07:00 +15°C° 0 mm 1 mps 681 mmHg 68%
    08:00 +18°C° 0 mm 1 mps 681 mmHg 62%
    09:00 +19°C° 0 mm 1 mps 681 mmHg 57%
    10:00 +21°C° 0 mm 1 mps 682 mmHg 51%
    11:00 +21°C° 0 mm 2 mps 682 mmHg 51%
    12:00 +21°C° 0 mm 2 mps 682 mmHg 51%
    13:00 +23°C° 0 mm 2 mps 682 mmHg 51%
    14:00 +23°C° 0 mm 2 mps 682 mmHg 54%
    15:00 +23°C° 0 mm 2 mps 681 mmHg 57%
    16:00 +21°C° 0 mm 2 mps 681 mmHg 60%
    17:00 +20°C° 0.1 mm 2 mps 681 mmHg 69%
    18:00 +19°C° 0.1 mm 1 mps 681 mmHg 79%
    19:00 +16°C° 0.1 mm 1 mps 681 mmHg 88%
    20:00 +14°C° 0 mm 1 mps 680 mmHg 90%
    21:00 +12°C° 0 mm 1 mps 680 mmHg 93%
    22:00 +10°C° 0 mm 1 mps 680 mmHg 95%
    23:00 +10°C° 0 mm 1 mps 680 mmHg 94%

    Day after tomorrow, 28 May, Sunday

    Time Temperature Precipitation Wind Pressure Humidity
    00:00 +10°C° 0 mm 2 mps 681 mmHg 94%
    01:00 +10°C° 0 mm 2 mps 681 mmHg 93%
    02:00 +10°C° 0 mm 2 mps 681 mmHg 93%
    03:00 +10°C° 0 mm 2 mps 681 mmHg 93%
    04:00 +9°C° 0 mm 2 mps 681 mmHg 93%
    05:00 +12°C° 0 mm 1 mps 681 mmHg 89%
    06:00 +14°C° 0 mm 1 mps 682 mmHg 85%
    07:00 +16°C° 0 mm 1 mps 682 mmHg 81%
    08:00 +19°C° 0 mm 1 mps 683 mmHg 70%
    09:00 +22°C° 0 mm 1 mps 683 mmHg 59%
    10:00 +22°C° 0 mm 0 mps 683 mmHg 49%
    11:00 +24°C° 0 mm 1 mps 683 mmHg 48%
    12:00 +25°C° 0 mm 1 mps 683 mmHg 47%
    13:00 +26°C° 0 mm 1 mps 683 mmHg 46%
    14:00 +25°C° 0 mm 1 mps 683 mmHg 49%
    15:00 +25°C° 0 mm 1 mps 682 mmHg 52%
    16:00 +25°C° 0 mm 1 mps 682 mmHg 56%
    17:00 +23°C° 0 mm 1 mps 682 mmHg 65%
    18:00 +21°C° 0 mm 1 mps 681 mmHg 75%
    19:00 +20°C° 0 mm 1 mps 681 mmHg 84%
    20:00 +18°C° 0 mm 1 mps 681 mmHg 87%
    21:00 +15°C° 0 mm 1 mps 681 mmHg 90%
    22:00 +13°C° 0 mm 1 mps 680 mmHg 93%
    23:00 +13°C° 0 mm 1 mps 680 mmHg 92%

    29 May, Monday

    Time Temperature Precipitation Wind Pressure Humidity
    00:00 +13°C° 0 mm 2 mps 680 mmHg 92%
    01:00 +13°C° 0 mm 2 mps 680 mmHg 92%
    02:00 +13°C° 0 mm 2 mps 680 mmHg 91%
    03:00 +12°C° 0 mm 2 mps 680 mmHg 91%
    04:00 +12°C° 0 mm 2 mps 679 mmHg 91%
    05:00 +14°C° 0 mm 1 mps 680 mmHg 86%
    06:00 +16°C° 0 mm 1 mps 680 mmHg 81%
    07:00 +19°C° 0 mm 1 mps 681 mmHg 76%
    08:00 +21°C° 0 mm 1 mps 681 mmHg 68%
    09:00 +23°C° 0 mm 1 mps 681 mmHg 60%
    10:00 +23°C° 0 mm 0 mps 681 mmHg 52%
    11:00 +26°C° 0 mm 1 mps 681 mmHg 51%
    12:00 +26°C° 0 mm 1 mps 681 mmHg 50%
    13:00 +27°C° 0 mm 1 mps 681 mmHg 49%
    14:00 +26°C° 0.1 mm 1 mps 680 mmHg 53%
    15:00 +26°C° 0.1 mm 1 mps 680 mmHg 56%
    16:00 +25°C° 0.1 mm 2 mps 679 mmHg 60%
    17:00 +24°C° 0.3 mm 1 mps 679 mmHg 69%
    18:00 +22°C° 0.3 mm 1 mps 679 mmHg 79%
    19:00 +21°C° 0.3 mm 1 mps 678 mmHg 88%
    20:00 +19°C° 0.1 mm 1 mps 678 mmHg 90%
    21:00 +15°C° 0.1 mm 1 mps 677 mmHg 92%
    22:00 +13°C° 0.1 mm 1 mps 677 mmHg 94%
    23:00 +13°C° 0 mm 1 mps 677 mmHg 94%

    30 May, Tuesday

    Time Temperature Precipitation Wind Pressure Humidity
    00:00 +13°C° 0 mm 1 mps 677 mmHg 93%
    01:00 +13°C° 0 mm 1 mps 677 mmHg 93%
    02:00 +13°C° 0 mm 1 mps 677 mmHg 93%
    03:00 +12°C° 0 mm 1 mps 676 mmHg 92%
    04:00 +12°C° 0 mm 1 mps 676 mmHg 92%
    05:00 +14°C° 0 mm 1 mps 677 mmHg 87%
    06:00 +18°C° 0 mm 1 mps 678 mmHg 83%
    07:00 +20°C° 0 mm 1 mps 678 mmHg 78%
    08:00 +22°C° 0 mm 1 mps 679 mmHg 71%
    09:00 +24°C° 0 mm 1 mps 679 mmHg 63%
    10:00 +25°C° 0 mm 1 mps 679 mmHg 56%
    11:00 +26°C° 0.2 mm 1 mps 679 mmHg 57%
    12:00 +26°C° 0.2 mm 1 mps 679 mmHg 58%
    13:00 +26°C° 0.2 mm 2 mps 679 mmHg 58%
    14:00 +25°C° 1.1 mm 2 mps 679 mmHg 64%
    15:00 +25°C° 1.1 mm 1 mps 679 mmHg 69%
    16:00 +24°C° 1.1 mm 1 mps 679 mmHg 75%
    17:00 +23°C° 0.8 mm 1 mps 678 mmHg 80%
    18:00 +21°C° 0.8 mm 1 mps 678 mmHg 86%
    19:00 +20°C° 0.8 mm 1 mps 678 mmHg 91%
    20:00 +18°C° 0.2 mm 1 mps 678 mmHg 92%
    21:00 +16°C° 0.2 mm 1 mps 678 mmHg 94%
    22:00 +14°C° 0.2 mm 1 mps 678 mmHg 95%
    23:00 +14°C° 0.5 mm 1 mps 678 mmHg 96%

    31 May, Wednesday

    Time Temperature Precipitation Wind Pressure Humidity
    00:00 +14°C° 0.5 mm 1 mps 678 mmHg 96%
    01:00 +14°C° 0.5 mm 1 mps 678 mmHg 97%
    02:00 +14°C° 0.2 mm 1 mps 678 mmHg 97%
    03:00 +14°C° 0.2 mm 1 mps 679 mmHg 97%
    04:00 +14°C° 0.2 mm 1 mps 679 mmHg 97%
    05:00 +15°C° 0.1 mm 1 mps 679 mmHg 95%
    06:00 +16°C° 0.1 mm 1 mps 680 mmHg 94%
    07:00 +18°C° 0.1 mm 1 mps 680 mmHg 92%
    08:00 +19°C° 0.3 mm 1 mps 680 mmHg 88%
    09:00 +20°C° 0.3 mm 1 mps 681 mmHg 85%
    10:00 +21°C° 0.3 mm 1 mps 681 mmHg 81%
    11:00 +22°C° 0.8 mm 1 mps 681 mmHg 79%
    12:00 +22°C° 0.8 mm 1 mps 681 mmHg 77%
    13:00 +23°C° 0.8 mm 2 mps 681 mmHg 74%
    14:00 +23°C° 0.9 mm 2 mps 681 mmHg 75%
    15:00 +23°C° 0.9 mm 2 mps 681 mmHg 76%
    16:00 +23°C° 0.9 mm 2 mps 680 mmHg 77%
    17:00 +21°C° 0.7 mm 2 mps 680 mmHg 82%
    18:00 +21°C° 0.7 mm 1 mps 680 mmHg 87%
    19:00 +20°C° 0.7 mm 1 mps 680 mmHg 91%
    20:00 +18°C° 1.5 mm 1 mps 680 mmHg 93%
    21:00 +16°C° 1.5 mm 1 mps 680 mmHg 95%
    22:00 +14°C° 1.5 mm 1 mps 680 mmHg 96%
    23:00 +14°C° 0.8 mm 1 mps 680 mmHg 96%
    Show more